EN

Hourly Weather Glasgow

Today, 1 March, Monday

Time Temperature Precipitation Wind Pressure Humidity
00:00 +5°C° 0 mm 1 mps 775 mmHg 86%
01:00 +5°C° 0 mm 1 mps 775 mmHg 86%
02:00 +5°C° 0 mm 1 mps 775 mmHg 86%
03:00 +5°C° 0 mm 1 mps 774 mmHg 86%
04:00 +5°C° 0 mm 1 mps 774 mmHg 86%
05:00 +4°C° 0 mm 1 mps 774 mmHg 86%
06:00 +3°C° 0 mm 0 mps 774 mmHg 87%
07:00 +4°C° 0 mm 0 mps 774 mmHg 85%
08:00 +6°C° 0 mm 1 mps 774 mmHg 82%
09:00 +7°C° 0 mm 1 mps 774 mmHg 79%
10:00 +8°C° 0 mm 1 mps 774 mmHg 76%
11:00 +8°C° 0 mm 2 mps 774 mmHg 72%
12:00 +9°C° 0 mm 2 mps 774 mmHg 69%
13:00 +9°C° 0 mm 2 mps 774 mmHg 69%
14:00 +9°C° 0 mm 3 mps 773 mmHg 69%
15:00 +9°C° 0 mm 3 mps 773 mmHg 69%
16:00 +8°C° 0 mm 3 mps 773 mmHg 76%
17:00 +5°C° 0 mm 3 mps 773 mmHg 83%
18:00 +4°C° 0 mm 3 mps 773 mmHg 91%
19:00 +4°C° 0 mm 2 mps 773 mmHg 91%
20:00 +4°C° 0 mm 2 mps 773 mmHg 92%
21:00 +3°C° 0 mm 2 mps 773 mmHg 92%
22:00 +3°C° 0 mm 2 mps 773 mmHg 93%
23:00 +3°C° 0 mm 2 mps 773 mmHg 93%

Tomorrow, 2 March, Tuesday

Time Temperature Precipitation Wind Pressure Humidity
00:00 +2°C° 0 mm 2 mps 773 mmHg 94%
01:00 +1°C° 0 mm 3 mps 773 mmHg 95%
02:00 +2°C° 0 mm 3 mps 772 mmHg 96%
03:00 +2°C° 0 mm 3 mps 772 mmHg 97%
04:00 +1°C° 0 mm 4 mps 772 mmHg 97%
05:00 +3°C° 0 mm 4 mps 772 mmHg 96%
06:00 +3°C° 0 mm 4 mps 772 mmHg 96%
07:00 +4°C° 0 mm 4 mps 772 mmHg 93%
08:00 +4°C° 0 mm 4 mps 772 mmHg 90%
09:00 +4°C° 0 mm 4 mps 772 mmHg 88%
10:00 +5°C° 0 mm 5 mps 772 mmHg 82%
11:00 +6°C° 0 mm 5 mps 772 mmHg 77%
12:00 +7°C° 0 mm 5 mps 772 mmHg 72%
13:00 +7°C° 0 mm 5 mps 771 mmHg 71%
14:00 +7°C° 0 mm 4 mps 771 mmHg 70%
15:00 +8°C° 0 mm 4 mps 770 mmHg 69%
16:00 +6°C° 0 mm 4 mps 770 mmHg 75%
17:00 +5°C° 0 mm 3 mps 770 mmHg 82%
18:00 +3°C° 0 mm 3 mps 770 mmHg 89%
19:00 +3°C° 0 mm 3 mps 770 mmHg 89%
20:00 +3°C° 0 mm 2 mps 770 mmHg 89%
21:00 +3°C° 0 mm 2 mps 770 mmHg 89%
22:00 +3°C° 0 mm 2 mps 770 mmHg 88%
23:00 +4°C° 0 mm 1 mps 770 mmHg 88%

Day after tomorrow, 3 March, Wednesday

Time Temperature Precipitation Wind Pressure Humidity
00:00 +4°C° 0 mm 1 mps 770 mmHg 87%
01:00 +4°C° 0 mm 1 mps 770 mmHg 87%
02:00 +4°C° 0 mm 1 mps 770 mmHg 87%
03:00 +4°C° 0 mm 1 mps 769 mmHg 87%
04:00 +2°C° 0 mm 2 mps 769 mmHg 87%
05:00 +2°C° 0 mm 2 mps 769 mmHg 88%
06:00 +2°C° 0 mm 2 mps 769 mmHg 88%
07:00 +2°C° 0 mm 3 mps 769 mmHg 85%
08:00 +3°C° 0 mm 3 mps 769 mmHg 82%
09:00 +4°C° 0 mm 3 mps 769 mmHg 79%
10:00 +5°C° 0 mm 3 mps 769 mmHg 75%
11:00 +7°C° 0 mm 3 mps 769 mmHg 72%
12:00 +8°C° 0 mm 3 mps 769 mmHg 68%
13:00 +8°C° 0 mm 3 mps 768 mmHg 70%
14:00 +8°C° 0 mm 3 mps 768 mmHg 72%
15:00 +7°C° 0 mm 4 mps 768 mmHg 75%
16:00 +6°C° 0 mm 4 mps 768 mmHg 77%
17:00 +6°C° 0 mm 4 mps 768 mmHg 80%
18:00 +5°C° 0 mm 4 mps 768 mmHg 83%
19:00 +5°C° 0 mm 4 mps 768 mmHg 84%
20:00 +4°C° 0 mm 4 mps 768 mmHg 85%
21:00 +4°C° 0 mm 4 mps 768 mmHg 86%
22:00 +4°C° 0 mm 4 mps 768 mmHg 86%
23:00 +4°C° 0 mm 4 mps 768 mmHg 86%

4 March, Thursday

Time Temperature Precipitation Wind Pressure Humidity
00:00 +3°C° 0 mm 4 mps 768 mmHg 86%
01:00 +2°C° 0 mm 5 mps 768 mmHg 86%
02:00 +2°C° 0 mm 5 mps 768 mmHg 85%
03:00 +2°C° 0 mm 5 mps 768 mmHg 85%
04:00 +2°C° 0.1 mm 6 mps 768 mmHg 85%
05:00 +2°C° 0.1 mm 7 mps 768 mmHg 86%
06:00 +2°C° 0.1 mm 7 mps 769 mmHg 87%
07:00 0°C° 0 mm 8 mps 769 mmHg 82%
08:00 0°C° 0 mm 8 mps 770 mmHg 78%
09:00 0°C° 0 mm 8 mps 770 mmHg 73%
10:00 0°C° 0 mm 8 mps 770 mmHg 71%
11:00 0°C° 0 mm 8 mps 771 mmHg 70%
12:00 +2°C° 0 mm 7 mps 771 mmHg 68%
13:00 +2°C° 0 mm 7 mps 771 mmHg 68%
14:00 +2°C° 0 mm 7 mps 771 mmHg 67%
15:00 +2°C° 0 mm 7 mps 771 mmHg 67%
16:00 0°C° 0 mm 7 mps 771 mmHg 69%
17:00 0°C° 0 mm 7 mps 771 mmHg 70%
18:00 -1°C° 0 mm 7 mps 771 mmHg 71%
19:00 -1°C° 0 mm 7 mps 771 mmHg 71%
20:00 -1°C° 0 mm 6 mps 772 mmHg 71%
21:00 -1°C° 0 mm 6 mps 772 mmHg 70%
22:00 -1°C° 0 mm 6 mps 772 mmHg 74%
23:00 -2°C° 0 mm 6 mps 772 mmHg 77%

5 March, Friday

Time Temperature Precipitation Wind Pressure Humidity
00:00 -1°C° 0 mm 5 mps 772 mmHg 80%
01:00 -1°C° 0 mm 5 mps 772 mmHg 81%
02:00 -2°C° 0 mm 5 mps 772 mmHg 82%
03:00 -2°C° 0 mm 5 mps 772 mmHg 83%
04:00 -2°C° 0 mm 5 mps 772 mmHg 83%
05:00 -2°C° 0 mm 5 mps 773 mmHg 83%
06:00 -2°C° 0 mm 5 mps 773 mmHg 83%
07:00 -1°C° 0 mm 5 mps 773 mmHg 79%
08:00 0°C° 0 mm 5 mps 773 mmHg 75%
09:00 -1°C° 0 mm 6 mps 773 mmHg 70%
10:00 +1°C° 0 mm 5 mps 773 mmHg 68%
11:00 +2°C° 0 mm 5 mps 774 mmHg 65%
12:00 +2°C° 0 mm 5 mps 774 mmHg 62%
13:00 +3°C° 0 mm 4 mps 774 mmHg 61%
14:00 +3°C° 0 mm 4 mps 774 mmHg 60%
15:00 +4°C° 0 mm 4 mps 774 mmHg 59%
16:00 +2°C° 0 mm 3 mps 774 mmHg 65%
17:00 +1°C° 0 mm 3 mps 774 mmHg 71%
18:00 0°C° 0 mm 3 mps 773 mmHg 77%
19:00 -1°C° 0 mm 2 mps 774 mmHg 78%
20:00 -1°C° 0 mm 2 mps 774 mmHg 79%
21:00 -1°C° 0 mm 2 mps 774 mmHg 80%
22:00 -1°C° 0 mm 2 mps 775 mmHg 80%
23:00 -1°C° 0 mm 2 mps 775 mmHg 79%

6 March, Saturday

Time Temperature Precipitation Wind Pressure Humidity
00:00 -1°C° 0 mm 2 mps 775 mmHg 78%
01:00 -2°C° 0 mm 2 mps 775 mmHg 78%
02:00 -2°C° 0 mm 2 mps 774 mmHg 77%
03:00 -2°C° 0 mm 2 mps 774 mmHg 76%
04:00 -1°C° 0 mm 2 mps 774 mmHg 74%
05:00 -1°C° 0 mm 2 mps 774 mmHg 73%
06:00 -1°C° 0 mm 2 mps 774 mmHg 71%
07:00 +1°C° 0 mm 2 mps 774 mmHg 67%
08:00 +2°C° 0 mm 2 mps 774 mmHg 64%
09:00 +4°C° 0 mm 1 mps 774 mmHg 60%
10:00 +5°C° 0 mm 1 mps 774 mmHg 56%
11:00 +6°C° 0 mm 1 mps 774 mmHg 52%
12:00 +7°C° 0 mm 1 mps 774 mmHg 48%
13:00 +7°C° 0 mm 1 mps 774 mmHg 49%
14:00 +6°C° 0 mm 2 mps 774 mmHg 50%
15:00 +7°C° 0 mm 2 mps 773 mmHg 51%
16:00 +5°C° 0 mm 2 mps 773 mmHg 59%
17:00 +3°C° 0 mm 2 mps 773 mmHg 67%
18:00 +1°C° 0 mm 2 mps 773 mmHg 76%
19:00 +1°C° 0 mm 2 mps 773 mmHg 75%
20:00 +1°C° 0 mm 2 mps 773 mmHg 74%
21:00 +1°C° 0 mm 2 mps 773 mmHg 74%
22:00 +1°C° 0 mm 2 mps 772 mmHg 69%
23:00 +2°C° 0 mm 2 mps 772 mmHg 65%
Show more